TimeHST,TemperatureF,Dew PointF,Humidity,Sea Level PressureIn,VisibilityMPH,Wind Direction,Wind SpeedMPH,Gust SpeedMPH,PrecipitationIn,Events,Conditions,WindDirDegrees,DateUTC
12:53 AM,72.0,61.0,68,29.94,10.0,North,4.6,-,N/A,,Partly Cloudy,10,2011-12-22 10:53:00
1:53 AM,72.0,61.0,68,29.94,10.0,SE,5.8,-,N/A,,Clear,130,2011-12-22 11:53:00
2:53 AM,72.0,61.0,68,29.94,10.0,East,3.5,-,N/A,,Scattered Clouds,80,2011-12-22 12:53:00
3:53 AM,73.0,61.0,66,29.92,10.0,Calm,Calm,-,N/A,,Mostly Cloudy,0,2011-12-22 13:53:00
4:53 AM,73.0,61.0,66,29.92,10.0,Calm,Calm,-,N/A,,Scattered Clouds,0,2011-12-22 14:53:00
5:53 AM,72.0,62.1,71,29.93,10.0,East,3.5,-,N/A,,Scattered Clouds,100,2011-12-22 15:53:00
6:53 AM,70.0,62.1,76,29.96,10.0,NE,4.6,-,N/A,,Scattered Clouds,50,2011-12-22 16:53:00
7:53 AM,73.9,64.0,71,29.97,10.0,ESE,3.5,-,N/A,,Clear,120,2011-12-22 17:53:00
8:53 AM,78.1,64.9,64,29.97,10.0,WSW,4.6,-,N/A,,Clear,250,2011-12-22 18:53:00
9:53 AM,78.1,63.0,60,29.96,10.0,WSW,3.5,-,N/A,,Clear,240,2011-12-22 19:53:00
10:53 AM,80.1,62.1,54,29.95,10.0,South,9.2,-,N/A,,Clear,190,2011-12-22 20:53:00
11:53 AM,81.0,64.0,56,29.94,10.0,South,11.5,-,N/A,,Clear,180,2011-12-22 21:53:00
12:53 PM,81.0,63.0,54,29.91,10.0,South,11.5,-,N/A,,Overcast,170,2011-12-22 22:53:00
1:53 PM,80.1,66.0,62,29.89,10.0,South,11.5,-,N/A,,Overcast,180,2011-12-22 23:53:00
2:53 PM,79.0,68.0,69,29.89,10.0,South,9.2,-,N/A,,Overcast,170,2011-12-23 00:53:00
3:53 PM,78.1,66.9,68,29.90,10.0,South,10.4,-,N/A,,Overcast,170,2011-12-23 01:53:00
4:53 PM,78.1,66.0,66,29.91,10.0,SW,8.1,-,N/A,,Mostly Cloudy,220,2011-12-23 02:53:00
5:53 PM,77.0,66.9,71,29.92,10.0,SW,4.6,-,N/A,,Scattered Clouds,230,2011-12-23 03:53:00
6:53 PM,75.9,66.9,74,29.94,10.0,ESE,5.8,-,N/A,,Clear,110,2011-12-23 04:53:00
7:53 PM,75.0,55.9,51,29.96,10.0,NNE,13.8,-,N/A,,Partly Cloudy,20,2011-12-23 05:53:00
8:53 PM,73.9,55.9,53,29.98,10.0,NNE,11.5,-,N/A,,Clear,30,2011-12-23 06:53:00
9:53 PM,72.0,57.0,59,29.99,10.0,North,5.8,-,N/A,,Clear,10,2011-12-23 07:53:00
10:53 PM,72.0,62.1,71,29.99,10.0,NNE,9.2,-,N/A,,Partly Cloudy,30,2011-12-23 08:53:00
11:53 PM,73.9,60.1,62,29.99,10.0,NE,4.6,-,N/A,,Overcast,50,2011-12-23 09:53:00